AV279 Weather Reports


time (UTC)temp
C
wind
direction
speed
KPH
gust
KPH
rain 1hr
cm
rain 24hr
cm
rain mn
cm
humidity
%
barometer
mb
20260903015818 19 270 6.4 9.7 0.00 0.03 0.00 86 1017.1
20260903014819 19 270 6.4 12.9 0.00 0.03 0.00 86 1017.2
20260903013912 19 248 8.0 14.5 0.00 0.03 0.00 86 1017.0
20260903012820 19 270 4.8 8.0 0.00 0.03 0.00 86 1017.1
20260903011903 19 270 8.0 12.9 0.00 0.03 0.00 86 1016.8
20260903010839 19 248 6.4 9.7 0.00 0.03 0.00 86 1016.9
20260903005831 19 225 9.7 12.9 0.00 0.03 0.00 86 1016.9
20260903004819 18 225 8.0 11.3 0.00 0.03 0.00 85 1017.1
20260903003820 18 225 6.4 11.3 0.00 0.03 0.00 83 1017.2
20260903002911 18 225 6.4 12.9 0.00 0.03 0.00 82 1017.6
20260903001820 18 225 3.2 8.0 0.00 0.03 0.00 80 1017.6
20260903000818 18 225 6.4 8.0 0.00 0.03 0.00 79 1017.5
20260902235830 18 225 4.8 4.8 0.00 0.03 0.03 79 1017.8
20260902234859 18 225 3.2 8.0 0.00 0.03 0.03 79 1017.6
20260902233829 18 203 8.0 14.5 0.00 0.03 0.03 79 1017.5
20260902232830 18 203 6.4 9.7 0.00 0.03 0.03 80 1017.9
20260902231819 18 225 6.4 9.7 0.00 0.03 0.03 79 1018.2
20260902230830 19 203 6.4 9.7 0.00 0.03 0.03 80 1018.0
20260902225830 19 248 6.4 11.3 0.00 0.03 0.03 80 1017.9
20260902224819 19 248 8.0 11.3 0.00 0.03 0.03 79 1018.1
20260902223819 19 248 6.4 12.9 0.00 0.03 0.03 77 1018.1
20260902222850 19 225 9.7 19.3 0.00 0.03 0.03 77 1018.3
20260902221818 19 225 8.0 12.9 0.00 0.03 0.03 77 1018.2
20260902220819 19 225 9.7 14.5 0.00 0.03 0.03 76 1018.2
20260902215819 19 203 11.3 19.3 0.00 0.03 0.03 77 1018.4
20260902214851 19 225 6.4 11.3 0.00 0.03 0.03 77 1018.4
20260902213819 19 225 8.0 12.9 0.00 0.03 0.03 76 1018.3
20260902212819 19 225 4.8 9.7 0.00 0.03 0.03 76 1018.3
20260902211820 19 225 8.0 11.3 0.00 0.03 0.03 76 1018.5
20260902211015 18 270 4.8 8.0 0.00 0.03 0.03 76 1018.7
20260902205818 18 225 6.4 9.7 0.00 0.03 0.03 76 1018.5
20260902204840 18 248 9.7 14.5 0.00 0.03 0.03 76 1018.5
20260902203818 18 225 9.7 14.5 0.00 0.03 0.03 75 1018.6
20260902202819 18 225 11.3 19.3 0.00 0.03 0.03 75 1018.6
20260902202016 18 225 6.4 9.7 0.00 0.03 0.03 75 1018.7
20260902201020 19 225 6.4 9.7 0.00 0.03 0.03 74 1018.7
20260902200020 19 225 9.7 16.1 0.00 0.03 0.03 73 1018.7
20260902195020 19 225 6.4 11.3 0.00 0.03 0.03 73 1018.8
20260902194020 19 203 8.0 14.5 0.00 0.03 0.03 73 1018.9
20260902193020 19 248 6.4 14.5 0.00 0.03 0.03 72 1018.9
20260902192029 19 225 6.4 11.3 0.00 0.03 0.03 72 1018.8
20260902191039 19 203 6.4 11.3 0.00 0.03 0.03 71 1018.8
20260902190019 19 225 4.8 9.7 0.00 0.03 0.03 71 1018.6
20260902185019 19 225 6.4 11.3 0.00 0.03 0.03 71 1018.7
20260902184020 19 203 4.8 6.4 0.00 0.03 0.03 70 1018.8
20260902183020 19 225 8.0 11.3 0.00 0.03 0.03 70 1018.8
20260902182020 19 203 6.4 12.9 0.00 0.03 0.03 69 1018.7
20260902181020 19 225 6.4 9.7 0.00 0.03 0.03 69 1018.7
20260902180020 20 225 8.0 11.3 0.00 0.03 0.03 67 1018.7
20260902175020 20 225 8.0 11.3 0.00 0.03 0.03 67 1018.7
20260902174050 20 225 6.4 14.5 0.00 0.03 0.03 66 1018.7
20260902173020 20 225 4.8 11.3 0.00 0.03 0.03 67 1019.0
20260902172020 20 225 8.0 11.3 0.00 0.03 0.03 66 1018.9
20260902171020 20 225 8.0 12.9 0.00 0.03 0.03 66 1018.9
20260902170020 20 270 4.8 6.4 0.00 0.03 0.03 65 1019.1
20260902165020 20 270 4.8 8.0 0.00 0.03 0.03 65 1019.0
20260902164226 20 248 6.4 9.7 0.00 0.03 0.03 65 1019.1
20260902163341 21 180 6.4 17.7 0.00 0.03 0.03 66 1019.1
20260902162320 21 225 6.4 20.9 0.00 0.03 0.03 64 1019.3
20260902161320 21 270 9.7 22.5 0.00 0.03 0.03 66 1019.4
20260902160342 21 270 6.4 11.3 0.00 0.03 0.03 66 1019.4
20260902155340 21 248 8.0 16.1 0.00 0.03 0.03 66 1019.3
20260902154320 21 248 9.7 20.9 0.00 0.03 0.03 66 1019.5
20260902153320 21 270 6.4 16.1 0.00 0.03 0.03 66 1019.5
20260902152331 21 293 4.8 8.0 0.00 0.03 0.03 67 1019.5
20260902151403 21 225 8.0 16.1 0.00 0.03 0.03 68 1019.6
20260902150320 21 248 6.4 14.5 0.00 0.03 0.03 69 1019.7
20260902145341 21 225 4.8 9.7 0.00 0.03 0.03 69 1019.6
20260902144320 21 248 6.4 12.9 0.00 0.03 0.03 69 1019.7
20260902143330 21 225 8.0 16.1 0.00 0.03 0.03 69 1019.7
20260902142330 22 270 4.8 9.7 0.00 0.03 0.03 68 1019.8
20260902141320 21 248 3.2 6.4 0.00 0.03 0.03 71 1019.8
20260902140320 21 248 4.8 6.4 0.00 0.03 0.03 69 1019.9
20260902135320 21 248 4.8 9.7 0.00 0.03 0.03 70 1019.9
20260902134330 21 270 4.8 9.7 0.00 0.03 0.03 70 1019.8
20260902133330 21 270 3.2 4.8 0.00 0.03 0.03 71 1019.8
20260902132352 21 225 9.7 16.1 0.00 0.03 0.03 72 1019.9
20260902131330 20 180 8.0 14.5 0.00 0.03 0.03 73 1020.0
20260902130330 20 248 6.4 12.9 0.00 0.03 0.03 73 1020.0
20260902125320 21 248 4.8 9.7 0.00 0.03 0.03 73 1019.9
20260902124320 21 248 8.0 14.5 0.00 0.03 0.03 70 1020.0
20260902123319 21 270 3.2 4.8 0.00 0.03 0.03 73 1020.0
20260902122320 21 270 3.2 6.4 0.00 0.03 0.03 73 1019.9
20260902121319 21 248 8.0 11.3 0.00 0.03 0.03 75 1020.1
20260902120359 21 248 3.2 6.4 0.00 0.03 0.03 74 1020.1
20260902115330 21 270 4.8 6.4 0.00 0.03 0.03 72 1020.0
20260902114320 21 248 3.2 4.8 0.00 0.03 0.03 74 1020.1
20260902113320 21 158 3.2 8.0 0.00 0.03 0.03 75 1020.1
20260902112320 21 248 4.8 6.4 0.00 0.03 0.03 76 1020.3
20260902111320 21 203 3.2 6.4 0.00 0.03 0.03 79 1020.3
20260902110341 20 248 3.2 6.4 0.00 0.03 0.03 83 1020.2
20260902105331 20 270 3.2 9.7 0.00 0.03 0.03 86 1020.5
20260902104320 19 270 1.6 3.2 0.00 0.03 0.03 88 1020.5
20260902103331 18 270 3.2 4.8 0.00 0.03 0.03 89 1020.6
20260902102353 18 203 3.2 6.4 0.03 0.03 0.03 91 1020.7
20260902101319 17 203 3.2 6.4 0.03 0.03 0.03 91 1020.7
20260902100320 17 203 3.2 4.8 0.03 0.03 0.03 91 1020.8
20260902095319 17 225 1.6 3.2 0.03 0.03 0.03 90 1020.8
20260902094321 17 225 1.6 1.6 0.03 0.03 0.03 89 1020.9
20260902093319 17 0 1.6 1.6 0.03 0.03 0.03 86 1020.8
20260902092322 17 315 1.6 3.2 0.00 0.00 0.00 83 1020.9
20260902091518 17 248 6.4 9.7 0.00 0.00 0.00 83 1020.8
20260902090931 17 225 8.0 11.3 0.00 0.00 0.00 82 1020.7
20260902090117 17 248 4.8 9.7 0.00 0.00 0.00 83 1020.6
20260902085403 17 225 6.4 12.9 0.00 0.00 0.00 83 1020.5
20260902084420 17 225 9.7 12.9 0.00 0.00 0.00 84 1020.5
20260902083420 17 248 4.8 9.7 0.00 0.00 0.00 85 1020.4
20260902082454 17 248 6.4 9.7 0.00 0.00 0.00 87 1020.1
20260902081420 17 225 4.8 6.4 0.00 0.00 0.00 88 1019.9
20260902080430 17 225 4.8 9.7 0.00 0.00 0.00 88 1019.9
20260902075419 17 225 6.4 11.3 0.00 0.00 0.00 88 1019.9
20260902074430 17 203 4.8 9.7 0.00 0.00 0.00 88 1019.9
20260902073419 17 248 3.2 4.8 0.00 0.00 0.00 89 1019.9
20260902072421 17 203 3.2 6.4 0.00 0.00 0.00 89 1019.6
20260902071419 16 225 3.2 6.4 0.00 0.00 0.00 90 1019.7
20260902070419 16 225 4.8 8.0 0.00 0.00 0.00 91 1019.6
20260902065420 16 203 6.4 9.7 0.00 0.00 0.00 91 1019.7
20260902064628 15 225 3.2 6.4 0.00 0.00 0.00 92 1019.7
20260902063420 15 225 1.6 3.2 0.00 0.00 0.00 92 1019.6
20260902062419 15 225 3.2 8.0 0.00 0.00 0.00 92 1019.7
20260902061419 15 248 3.2 6.4 0.00 0.00 0.00 92 1019.7
20260902060454 15 225 4.8 6.4 0.00 0.00 0.00 92 1019.5
20260902055419 15 225 3.2 4.8 0.00 0.00 0.00 92 1019.6
20260902054430 14 203 1.6 3.2 0.00 0.00 0.00 92 1019.5
20260902053419 14 225 3.2 6.4 0.00 0.00 0.00 92 1019.4
20260902052451 14 203 1.6 3.2 0.00 0.00 0.00 92 1019.3
20260902051442 14 203 4.8 6.4 0.00 0.00 0.00 92 1019.2
20260902050420 14 203 1.6 3.2 0.00 0.00 0.00 92 1019.3
20260902045419 14 225 4.8 6.4 0.00 0.00 0.00 92 1019.3
20260902044451 14 225 4.8 9.7 0.00 0.00 0.00 92 1019.3
20260902043419 14 225 4.8 6.4 0.00 0.00 0.00 91 1019.2
20260902042509 15 225 3.2 6.4 0.00 0.00 0.00 91 1019.2
20260902041511 15 225 6.4 8.0 0.00 0.00 0.00 91 1019.2
20260902040440 15 248 3.2 3.2 0.00 0.00 0.00 91 1019.1
20260902035419 15 225 4.8 6.4 0.00 0.00 0.00 91 1019.1
20260902034421 15 225 3.2 4.8 0.00 0.00 0.00 91 1019.0
20260902033429 15 203 4.8 8.0 0.00 0.00 0.00 91 1019.1
20260902032500 14 225 4.8 6.4 0.00 0.00 0.00 91 1019.1
20260902031420 14 225 3.2 6.4 0.00 0.00 0.00 91 1019.1
20260902030430 14 225 4.8 6.4 0.00 0.00 0.00 91 1019.0
20260902025419 14 225 4.8 8.0 0.00 0.00 0.00 91 1019.2
20260902024433 15 225 4.8 6.4 0.00 0.00 0.00 91 1019.2
20260902023419 15 225 3.2 4.8 0.00 0.00 0.00 90 1019.2
20260902022440 15 225 3.2 4.8 0.00 0.00 0.00 90 1019.4
20260902021419 15 225 3.2 3.2 0.00 0.00 0.00 90 1019.4
20260902020419 15 225 3.2 6.4 0.00 0.03 0.00 90 1019.5